Location: 10033 Water Well
(34.0865°N, 106.8959°W)
Time: 17:15:24
(UTC+00:00)

CZ-3 Stage 3 - Pass Details

Date: 13 January 2026
Orbit: 207 x 9470 km, 30.8° (Epoch: 11 February)

Event Time Altitude Azimuth Distance (km) Brightness Sun altitude
Rises 03:28:07 0° 261° (W) 5,338 7.2 -38.7°
Reaches altitude 10° 03:33:19 10° 258° (WSW) 3,083 5.8 -39.7°
Enters shadow 03:36:11 20° 251° (WSW) 1,781 4.3 -40.3°
